This is the latest recevied weather packets stored in our database for station/object KL1IO. If no packets are shown the sender has not sent any weather packets the latest 1 day(s).
| Time | Temp. | Humidity | Pressure | Rain* | Wind** | Luminosity | Snow |
|---|---|---|---|---|---|---|---|
| 1778071652 | 1.67° C | 99% | 1015.1 hPa | 1.78 mm | - | 0 W/m² | - |
| 1778071349 | 1.67° C | 99% | 1015.1 hPa | 0 mm | - | 0 W/m² | - |
| 1778070745 | 1.67° C | 99% | 1015.2 hPa | 1.27 mm | - | 0 W/m² | - |
| 1778070139 | 1.67° C | 99% | 1015.2 hPa | 0 mm | - | 0 W/m² | - |
| 1778069837 | 1.67° C | 99% | 1015.1 hPa | 1.78 mm | - | 0 W/m² | - |
| 1778068021 | 1.67° C | 99% | 1015.3 hPa | 1.27 mm | - | 0 W/m² | - |
| 1778066508 | 1.67° C | 99% | 1015.2 hPa | 1.27 mm | - | 0 W/m² | - |
| 1778065903 | 1.67° C | 99% | 1015.2 hPa | 1.78 mm | - | 0 W/m² | - |
| 1778065600 | 1.67° C | 99% | 1015.2 hPa | 1.78 mm | - | 0 W/m² | - |
| 1778064994 | 1.67° C | 99% | 1015.2 hPa | 0 mm | - | 0 W/m² | - |
| 1778064691 | 1.67° C | 99% | 1015.1 hPa | 0 mm | - | 0 W/m² | - |
| 1778064389 | 1.67° C | 99% | 1015.2 hPa | 0 mm | - | 0 W/m² | - |
| 1778063784 | 1.67° C | 99% | 1015.1 hPa | 1.27 mm | - | 0 W/m² | - |
| 1778062876 | 1.67° C | 99% | 1015.3 hPa | 1.78 mm | - | 0 W/m² | - |
| 1778062269 | 1.67° C | 99% | 1015.2 hPa | 0 mm | - | 0 W/m² | - |
| 1778061968 | 1.67° C | 99% | 1015.4 hPa | 1.27 mm | - | 0 W/m² | - |
| 1778061665 | 1.67° C | 99% | 1015.3 hPa | 1.27 mm | - | 0 W/m² | - |
| 1778061364 | 1.67° C | 99% | 1015 hPa | 0 mm | - | 0 W/m² | - |
| 1778060455 | 1.67° C | 99% | 1015.2 hPa | 1.78 mm | - | 0 W/m² | - |
| 1778058640 | 1.67° C | 99% | 1014.9 hPa | 0 mm | - | 0 W/m² | - |
| 1778058338 | 1.67° C | 99% | 1015 hPa | 1.27 mm | - | 0 W/m² | - |
| 1778058034 | 1.67° C | 99% | 1015.2 hPa | 1.27 mm | - | 0 W/m² | - |
| 1778056820 | 1.67° C | 99% | 1015 hPa | 0 mm | - | 0 W/m² | - |
| 1778056518 | 1.67° C | 99% | 1015 hPa | 0 mm | - | 0 W/m² | - |
| 1778055912 | 1.67° C | 99% | 1014.8 hPa | 1.78 mm | - | 0 W/m² | - |
* Rain latest hour (hover to see other rain measurements)
** Current wind speed in m/s (hover to see current wind gust speed)